Regional Weather Roundup
Issued by NWS Goodland, KS

Home | Current Version | Previous Version | Text Only | Print | Product List | Glossary On
Versions: 1 2 3 4 5 6 7 8 9 10 11 12 13 14 15 16 17 18 19 20 21 22 23 24 25 26 27 28 29 30 31 32 33 34 35 36 37 38 39 40 41 42 43 44 45 46 47 48 49 50
000
ASUS43 KGLD 281408
RWRGLD

GOODLAND FORECAST AREA HOURLY WEATHER ROUNDUP
NATIONAL WEATHER SERVICE GOODLAND KS
800 AM MDT THU JUL 28 2016

...OFFICIAL OBSERVATIONS...

CITY           SKY/WX    TMP DP  RH WIND       PRES   REMARKS
GOODLAND KS    SUNNY     72  56  57 S10       30.09F
HILL CITY KS   CLOUDY    72  67  84 E3        30.07F
IMPERIAL NEB   TSTM      67  65  93 N15       30.18R FOG
MCCOOK NEB     SUNNY     70  62  76 E13       30.10F
AKRON CO       CLOUDY    66  54  65 CALM      30.19R
BURLINGTON CO  SUNNY     67  56  67 S15       30.14R
LIMON CO       SUNNY     64  57  78 S25       30.20F
$$

...UNOFFICIAL OBSERVATIONS...

CITY           SKY/WX    TMP DP  RH WIND       PRES   REMARKS
COLBY KS       SUNNY     73  61  64 N9        30.11F
LENORA KS        N/A     72  32  23 MISG        N/A
NORTON KS      SUNNY     73  63  68 NE12      30.08S
KIT CARSON CO    N/A     70  56  60 MISG        N/A
YUMA CO          N/A     63  59  86 NE21        N/A
$$




USA.gov is the U.S. government's official web portal to all federal, state and local government web resources and services.